Wind_Speed
35 35 36 35 35 36 36 37 37 36 37 38 38 38 38 38 38 37 37 38 39 39 38 39 39 40 41 41 41 42 41 40 39 40 41 41 40 40 40 40 40 40 39
36 36 36 37 37 37 37 37 37 37 38 38 38 39 39 38 38 38 38 38 39 40 40 40 40 41 42 42 43 43 42 41 41 41 41 42 42 42 42 42 42 41 41
36 36 37 37 37 38 38 38 38 38 38 38 38 39 39 39 40 40 40 40 41 41 41 40 40 41 42 42 42 44 44 43 44 43 44 43 43 43 43 43 43 43 43
36 37 38 37 37 38 38 39 39 39 40 39 39 39 40 41 41 42 41 41 42 41 42 42 41 42 43 42 42 44 45 45 45 45 46 46 45 44 44 44 44 44 44
36 37 37 37 37 37 38 39 39 40 40 40 40 40 41 41 42 42 42 43 43 43 43 44 43 42 43 43 42 43 45 46 46 46 47 48 48 47 46 46 46 46 46
36 37 37 37 37 37 38 38 39 40 41 42 41 41 41 42 42 43 43 44 45 45 46 46 45 44 44 45 45 45 45 47 47 47 47 48 49 48 48 48 48 48 48
36 36 37 37 38 38 38 38 39 40 40 41 42 42 42 42 43 44 44 44 46 47 48 47 47 46 46 46 46 46 47 48 48 48 48 49 49 50 50 50 50 50 50
36 36 36 37 38 38 39 39 40 40 41 42 42 43 44 44 45 46 45 45 46 47 49 49 49 48 48 47 47 47 47 49 50 49 49 49 49 50 51 51 51 51 52
36 36 37 37 38 39 39 40 41 42 42 42 43 44 45 45 46 47 47 47 47 48 49 49 49 50 49 49 49 49 49 50 51 50 50 51 51 51 51 51 52 53 53
36 37 38 38 38 39 40 41 42 43 43 43 44 45 46 47 47 48 48 48 48 48 49 50 50 50 50 50 50 51 51 51 51 50 51 52 53 53 53 52 52 53 54
37 38 38 38 39 40 40 41 42 43 43 44 44 45 46 47 48 48 49 48 48 48 49 49 51 51 51 51 51 51 51 51 51 51 51 52 52 52 53 52 52 52 52
37 38 39 39 40 41 42 42 42 42 43 44 45 45 45 46 47 48 48 49 49 48 49 49 50 50 50 50 51 51 51 51 50 50 50 49 50 51 51 51 52 52 52
37 38 39 40 41 42 42 43 43 42 43 44 44 45 45 46 46 47 47 48 49 49 48 49 49 50 50 49 49 49 50 50 50 51 50 49 49 50 51 51 52 53 53
37 38 39 40 41 41 42 42 42 42 42 43 43 44 44 45 45 46 47 47 48 48 48 48 48 48 48 48 49 49 49 50 51 51 51 50 50 50 50 51 52 52 52
38 38 39 39 40 41 41 42 42 42 42 42 43 43 44 44 45 45 47 47 47 48 48 48 47 48 48 48 48 48 49 50 51 52 52 52 51 50 51 51 51 51 52
37 38 38 39 39 40 40 41 42 42 42 42 42 43 44 45 46 45 46 47 48 48 48 48 47 48 49 48 47 47 47 48 49 50 51 52 52 51 52 51 51 51 51
37 37 38 38 39 39 40 40 41 42 42 43 43 44 45 45 45 45 46 47 47 47 48 49 49 49 49 48 47 47 48 47 48 49 50 50 51 52 52 51 51 51 51
38 38 39 39 39 40 40 41 41 41 42 43 44 44 45 45 45 46 46 47 47 48 48 48 49 49 49 49 49 49 48 48 48 48 49 49 50 52 52 52 53 52 52
39 39 39 40 40 40 40 41 41 42 42 42 43 44 44 44 45 45 46 47 47 47 47 48 48 47 47 47 48 49 49 49 48 48 49 49 49 50 52 53 53 52 52
39 39 39 40 40 40 41 42 43 43 43 43 43 44 45 44 44 44 45 45 46 46 46 47 47 48 48 48 49 49 50 50 50 50 50 50 50 50 51 51 52 52 52
39 39 39 40 40 41 42 42 43 43 43 43 44 44 44 44 45 44 44 45 45 46 46 47 47 47 48 49 49 49 50 50 50 50 50 50 51 51 51 51 52 52 52
39 39 39 39 40 41 42 42 42 42 42 42 42 43 44 44 44 45 45 45 45 46 47 47 47 47 48 48 49 49 50 50 49 49 49 50 50 50 51 51 52 52 52
38 39 39 38 39 39 40 40 40 41 41 41 42 42 42 43 44 44 44 45 45 45 46 47 47 47 47 48 49 49 48 48 48 48 48 49 49 50 50 50 51 51 52
37 38 38 38 38 38 38 39 39 40 41 41 41 41 42 43 43 43 43 44 45 45 45 46 46 46 46 47 47 47 47 46 47 47 47 47 48 48 48 48 49 50 51
37 37 37 37 37 38 39 39 39 40 41 41 41 41 42 42 42 43 43 43 44 44 45 45 45 45 45 45 45 45 44 44 44 45 45 46 46 47 47 47 48 49 50
37 37 38 38 39 39 40 40 41 41 41 41 41 41 41 41 41 41 42 42 43 44 44 45 45 45 44 44 44 44 43 43 44 44 44 45 45 46 46 47 47 48 49
Wind_Direction
258 259 259 259 260 260 261 261 262 261 260 260 260 260 261 261 261 261 261 261 259 259 262 262 264 263 262 262 261 259 258 257 256 256 254 254 255 256 256 255 255 258 258
258 258 259 258 259 260 261 262 262 262 262 261 260 259 259 259 259 259 260 261 260 260 262 263 264 264 263 263 261 259 258 256 256 256 255 254 255 255 256 257 257 258 258
257 258 259 259 260 260 261 261 262 262 262 262 261 260 259 259 259 260 260 261 261 260 260 262 263 264 264 264 261 259 258 256 255 256 256 254 255 257 256 257 257 257 258
257 257 259 260 260 260 261 261 261 261 262 262 262 261 260 260 260 261 260 260 261 260 261 261 265 266 265 265 262 260 259 257 256 256 256 255 255 255 255 255 256 256 257
258 258 258 259 260 260 261 261 262 262 262 262 263 262 262 261 260 261 262 261 261 261 262 263 265 267 266 265 264 262 259 257 257 258 257 256 256 256 256 255 255 256 257
260 259 259 259 259 260 261 262 262 263 262 262 263 264 263 263 262 263 264 263 263 263 264 266 266 267 267 265 264 262 260 258 257 258 257 257 256 257 257 257 256 256 256
261 260 260 259 259 260 261 262 263 264 264 264 264 264 264 264 264 264 264 264 264 264 265 266 266 266 267 265 264 262 260 259 258 258 257 257 257 258 258 258 256 256 256
261 261 261 261 261 260 261 263 263 264 265 265 265 265 264 264 264 263 264 265 265 265 266 266 266 266 265 265 264 262 260 260 259 258 258 257 258 259 259 258 257 256 256
262 262 261 261 261 261 262 263 264 265 265 266 266 265 265 263 264 264 265 266 266 267 267 267 267 267 266 265 264 263 262 261 259 259 258 257 258 259 259 259 258 257 256
263 263 262 261 261 262 262 263 265 266 267 267 267 266 265 264 265 265 266 267 268 268 268 268 268 268 267 266 265 263 261 260 259 259 258 258 258 258 259 259 258 258 258
263 263 263 263 263 263 263 264 266 266 267 267 267 268 267 266 266 266 267 268 269 269 268 268 268 267 268 268 266 263 261 260 260 259 259 258 258 258 258 258 258 259 259
265 264 264 265 265 265 265 265 266 267 268 268 268 269 268 268 267 266 267 268 268 268 268 267 267 267 267 268 267 265 262 260 259 259 259 258 257 256 257 257 257 258 259
267 266 266 266 267 267 267 267 267 268 269 269 269 270 270 269 268 267 267 268 268 267 267 267 266 266 267 267 266 264 263 261 260 260 259 258 258 257 257 258 258 259 260
268 268 268 268 269 269 269 269 269 269 270 270 271 271 270 270 269 268 267 268 267 266 266 267 266 265 266 266 265 263 262 261 260 260 259 259 259 259 259 258 258 259 260
271 271 271 271 270 271 271 271 270 270 271 272 272 272 272 271 270 270 268 266 266 266 265 265 265 263 264 266 265 264 263 262 261 261 260 260 260 260 260 259 258 259 260
272 272 272 272 271 271 271 271 272 272 272 272 273 274 273 272 271 270 269 267 267 266 265 264 265 264 263 263 263 264 264 263 263 262 261 261 260 260 260 259 259 260 260
272 272 272 272 271 270 271 272 272 273 273 273 273 273 273 273 272 270 268 267 267 265 265 266 266 265 264 263 263 263 264 264 264 263 262 262 261 261 261 260 260 260 260
274 274 272 271 271 271 272 272 272 274 274 274 274 274 274 272 272 271 269 267 267 266 265 266 266 266 266 265 264 264 264 265 266 264 263 263 262 261 260 260 260 260 260
274 273 273 272 271 271 272 272 273 274 274 274 274 274 274 273 272 271 269 268 266 266 266 267 267 266 265 265 266 265 265 266 266 265 264 264 263 262 261 261 261 260 260
274 273 273 273 272 272 273 274 274 275 274 274 273 273 274 274 272 271 270 268 267 265 266 267 267 267 266 266 267 266 267 267 266 266 265 264 264 262 262 261 261 261 261
275 275 274 274 274 275 276 276 276 276 276 275 274 274 274 273 272 271 270 269 267 266 266 268 268 267 267 266 266 267 267 267 267 266 265 264 264 263 263 262 262 261 261
276 275 275 276 276 277 277 277 278 278 278 276 276 276 275 274 273 272 271 269 268 268 267 267 268 268 268 267 267 267 267 267 267 266 265 264 264 264 263 262 262 262 261
278 277 277 278 278 279 279 278 279 279 279 278 278 277 276 275 274 273 271 269 268 268 267 267 268 268 268 267 268 267 268 268 267 267 266 265 264 263 263 262 262 262 262
280 280 280 280 280 280 281 280 281 281 280 280 279 278 277 277 276 274 271 269 268 268 267 267 267 267 267 268 268 268 268 268 268 267 266 266 265 265 264 263 263 263 263
281 282 282 282 282 282 283 282 282 282 281 281 281 280 279 277 276 275 273 271 270 268 267 266 266 267 268 268 268 268 268 268 268 267 266 266 266 265 265 264 264 264 264
283 283 282 283 283 284 284 284 283 283 283 282 282 282 280 278 276 275 274 273 271 269 267 267 266 267 267 267 267 267 267 266 266 266 266 266 267 266 266 265 265 265 264
Height
5723 5724 5725 5726 5727 5728 5728 5729 5729 5730 5730 5731 5731 5732 5732 5733 5733 5734 5734 5734 5735 5735 5736 5735 5735 5735 5735 5735 5736 5737 5738 5740 5742 5743 5745 5747 5749 5751 5753 5755 5757 5758 5759
5713 5714 5715 5716 5717 5718 5719 5719 5720 5720 5721 5721 5721 5722 5722 5723 5724 5724 5724 5724 5725 5726 5726 5726 5726 5726 5725 5725 5725 5726 5727 5729 5731 5733 5735 5737 5740 5741 5743 5745 5747 5749 5750
5703 5704 5705 5706 5707 5708 5709 5709 5710 5710 5711 5711 5711 5711 5712 5713 5713 5714 5714 5715 5715 5715 5716 5716 5716 5715 5715 5715 5715 5715 5716 5718 5720 5722 5724 5726 5729 5731 5733 5735 5737 5738 5739
5693 5694 5695 5696 5697 5698 5698 5699 5699 5700 5700 5700 5701 5701 5702 5703 5703 5703 5704 5704 5704 5705 5705 5705 5705 5705 5704 5704 5704 5704 5705 5707 5708 5711 5713 5715 5717 5720 5722 5724 5725 5727 5728
5683 5684 5684 5685 5686 5687 5687 5688 5688 5689 5689 5690 5690 5690 5691 5691 5692 5692 5693 5693 5693 5694 5694 5694 5694 5694 5694 5694 5693 5693 5694 5695 5697 5699 5701 5703 5705 5707 5710 5713 5714 5715 5717
5672 5673 5674 5675 5676 5676 5677 5677 5678 5678 5678 5678 5679 5679 5679 5680 5680 5681 5681 5681 5682 5682 5682 5682 5683 5683 5682 5682 5682 5682 5683 5683 5685 5687 5689 5691 5693 5695 5698 5700 5702 5703 5705
5662 5662 5663 5664 5665 5665 5666 5666 5666 5667 5667 5667 5667 5668 5668 5668 5669 5670 5670 5670 5670 5670 5670 5670 5671 5670 5670 5670 5669 5670 5671 5672 5673 5675 5677 5679 5681 5683 5685 5687 5688 5690 5692
5651 5651 5652 5653 5654 5654 5654 5655 5655 5655 5655 5655 5655 5655 5656 5656 5657 5657 5658 5658 5658 5658 5658 5658 5658 5658 5658 5657 5657 5658 5659 5660 5662 5663 5664 5666 5668 5670 5671 5674 5675 5677 5679
5640 5641 5641 5642 5642 5643 5643 5643 5643 5643 5643 5643 5643 5643 5643 5643 5644 5644 5645 5645 5645 5645 5645 5645 5645 5645 5645 5645 5645 5645 5646 5647 5649 5650 5652 5653 5655 5656 5658 5659 5661 5664 5666
5630 5630 5630 5630 5631 5631 5631 5631 5631 5631 5631 5630 5630 5630 5630 5630 5630 5631 5632 5632 5632 5632 5632 5632 5632 5631 5632 5632 5632 5633 5633 5634 5636 5637 5638 5640 5641 5642 5643 5645 5647 5649 5651
5619 5619 5619 5619 5619 5619 5619 5619 5619 5618 5618 5617 5617 5616 5616 5616 5617 5617 5618 5618 5619 5618 5618 5618 5618 5618 5618 5618 5618 5619 5620 5621 5622 5623 5624 5626 5627 5628 5629 5631 5633 5634 5636
5608 5608 5608 5608 5607 5607 5607 5606 5606 5605 5605 5604 5604 5603 5603 5603 5603 5603 5604 5604 5605 5605 5605 5605 5604 5604 5604 5604 5605 5605 5606 5607 5608 5609 5610 5611 5613 5614 5615 5617 5618 5619 5621
5597 5596 5596 5596 5595 5595 5594 5593 5593 5592 5592 5591 5590 5590 5590 5589 5590 5590 5590 5590 5591 5590 5590 5590 5590 5590 5590 5591 5591 5591 5592 5594 5595 5596 5597 5598 5599 5600 5601 5603 5604 5605 5606
5586 5585 5585 5584 5583 5582 5582 5581 5580 5580 5579 5578 5578 5577 5577 5576 5576 5576 5576 5576 5576 5576 5577 5576 5577 5577 5577 5577 5577 5578 5579 5580 5581 5582 5583 5584 5585 5586 5587 5589 5590 5591 5592
5574 5573 5573 5572 5571 5570 5569 5569 5568 5567 5566 5566 5565 5564 5564 5563 5563 5563 5562 5562 5562 5562 5563 5563 5563 5563 5563 5563 5563 5565 5566 5566 5567 5568 5569 5570 5571 5572 5573 5575 5576 5577 5578
5563 5562 5561 5560 5559 5558 5558 5557 5556 5555 5554 5553 5552 5552 5551 5550 5549 5549 5549 5549 5549 5549 5549 5549 5549 5549 5549 5549 5550 5551 5552 5552 5553 5554 5555 5556 5557 5558 5559 5560 5561 5562 5564
5551 5550 5549 5549 5548 5547 5546 5545 5544 5543 5542 5541 5540 5539 5538 5537 5536 5535 5535 5535 5535 5535 5535 5535 5535 5535 5535 5535 5536 5536 5537 5538 5538 5539 5540 5541 5542 5543 5544 5545 5546 5547 5549
5540 5539 5537 5537 5536 5535 5534 5533 5531 5530 5529 5528 5526 5525 5524 5523 5522 5521 5521 5521 5521 5521 5521 5521 5521 5521 5520 5521 5521 5522 5523 5523 5523 5524 5525 5526 5527 5527 5528 5530 5531 5532 5534
5528 5527 5525 5524 5523 5522 5521 5520 5519 5517 5516 5514 5513 5512 5510 5509 5508 5508 5507 5507 5507 5507 5508 5508 5507 5507 5507 5506 5507 5507 5508 5508 5509 5509 5509 5510 5511 5512 5513 5515 5516 5518 5518
5515 5514 5513 5512 5511 5509 5508 5507 5505 5504 5503 5501 5500 5498 5497 5496 5495 5494 5494 5494 5494 5494 5494 5494 5493 5493 5492 5492 5492 5492 5493 5494 5494 5494 5494 5495 5496 5497 5497 5499 5500 5501 5502
5503 5502 5501 5500 5498 5497 5495 5493 5492 5490 5489 5487 5486 5485 5483 5482 5481 5481 5480 5480 5480 5480 5480 5480 5479 5478 5478 5478 5478 5477 5478 5478 5478 5479 5479 5479 5480 5481 5482 5483 5484 5485 5486
5492 5490 5489 5487 5486 5484 5482 5481 5479 5477 5475 5474 5472 5471 5469 5468 5467 5466 5466 5465 5466 5466 5465 5465 5465 5464 5463 5463 5463 5462 5462 5462 5463 5463 5463 5464 5464 5465 5466 5467 5468 5469 5470
5480 5478 5476 5475 5473 5471 5470 5468 5466 5464 5462 5460 5458 5457 5455 5454 5453 5452 5451 5451 5451 5451 5451 5450 5450 5449 5449 5448 5448 5447 5447 5447 5447 5447 5447 5448 5448 5449 5450 5451 5452 5453 5454
5468 5466 5464 5463 5461 5459 5457 5455 5453 5451 5449 5447 5445 5443 5442 5440 5438 5437 5437 5436 5436 5436 5435 5435 5435 5435 5434 5433 5433 5432 5432 5432 5432 5432 5432 5433 5433 5434 5435 5436 5436 5437 5438
5456 5454 5452 5450 5449 5447 5445 5442 5440 5438 5436 5433 5431 5429 5428 5426 5424 5423 5422 5422 5421 5420 5420 5420 5420 5420 5420 5419 5418 5417 5418 5418 5418 5418 5418 5418 5419 5419 5420 5421 5421 5422 5422
5445 5443 5441 5439 5437 5435 5432 5430 5427 5425 5422 5420 5418 5416 5414 5412 5410 5409 5408 5406 5406 5405 5404 5404 5405 5404 5404 5404 5404 5403 5403 5403 5403 5403 5404 5404 5404 5405 5405 5406 5406 5406 5406